| time (UTC) | temp F | wind direction | speed MPH | gust MPH | rain 1hr in | rain 24hr in | rain mn in | humidity % | barometer mb |
| 20260504044545 | 64 | 250 | 2.0 | 4.0 | 0.00 | 0.00 | 0.00 | 67 | 1009.4 |
| 20260504043055 | 66 | 230 | 2.0 | 3.0 | 0.00 | 0.00 | 0.00 | 63 | 1009.3 |
| 20260504041542 | 67 | 227 | 0.0 | 5.0 | 0.00 | 0.00 | 0.00 | 61 | 1009.2 |
| 20260504040044 | 68 | 227 | 2.0 | 5.0 | 0.00 | 0.00 | 0.00 | 60 | 1008.9 |
| 20260504034552 | 69 | 0 | 1.0 | 5.0 | 0.00 | 0.00 | 0.00 | 59 | 1008.8 |
| 20260504033042 | 70 | 244 | 2.0 | 6.0 | 0.00 | 0.00 | 0.00 | 55 | 1008.6 |
| 20260504031547 | 72 | 235 | 3.0 | 5.0 | 0.00 | 0.00 | 0.00 | 52 | 1008.7 |
| 20260504030048 | 74 | 126 | 0.0 | 6.0 | 0.00 | 0.00 | 0.00 | 47 | 1008.5 |
| 20260504024542 | 76 | 198 | 3.0 | 8.0 | 0.00 | 0.00 | 0.00 | 44 | 1008.2 |
| 20260504023053 | 79 | 236 | 3.0 | 5.0 | 0.00 | 0.00 | 0.00 | 44 | 1008.4 |
| 20260504021546 | 81 | 220 | 3.0 | 5.0 | 0.00 | 0.00 | 0.00 | 41 | 1008.4 |
| 20260504020056 | 83 | 248 | 2.0 | 4.0 | 0.00 | 0.00 | 0.00 | 43 | 1008.4 |
| 20260504014551 | 85 | 218 | 2.0 | 3.0 | 0.00 | 0.00 | 0.00 | 43 | 1008.3 |
| 20260504013042 | 88 | 178 | 1.0 | 3.0 | 0.00 | 0.00 | 0.00 | 35 | 1008.2 |
| 20260504011550 | 89 | 0 | 0.0 | 4.0 | 0.00 | 0.00 | 0.00 | 23 | 1008.5 |
| 20260504010042 | 89 | 63 | 1.0 | 4.0 | 0.00 | 0.00 | 0.00 | 23 | 1008.9 |
| 20260504004541 | 90 | 78 | 1.0 | 6.0 | 0.00 | 0.00 | 0.00 | 25 | 1009.2 |
| 20260504003047 | 90 | 109 | 0.0 | 3.0 | 0.00 | 0.00 | 0.00 | 27 | 1009.3 |
| 20260504001545 | 89 | 58 | 2.0 | 5.0 | 0.00 | 0.00 | 0.00 | 24 | 1009.3 |
| 20260504000047 | 90 | 0 | 1.0 | 4.0 | 0.00 | 0.00 | 0.00 | 22 | 1009.4 |
| 20260503234543 | 89 | 265 | 1.0 | 5.0 | 0.00 | 0.00 | 0.00 | 29 | 1009.7 |
| 20260503233040 | 89 | 200 | 3.0 | 7.0 | 0.00 | 0.00 | 0.00 | 24 | 1009.9 |
| 20260503231548 | 89 | 51 | 3.0 | 8.0 | 0.00 | 0.00 | 0.00 | 24 | 1010.0 |
| 20260503224545 | 88 | 105 | 2.0 | 6.0 | 0.00 | 0.00 | 0.00 | 25 | 1010.4 |
| 20260503223045 | 88 | 246 | 2.0 | 6.0 | 0.00 | 0.00 | 0.00 | 26 | 1010.6 |
| 20260503221541 | 88 | 87 | 2.0 | 8.0 | 0.00 | 0.00 | 0.00 | 29 | 1010.9 |
| 20260503220043 | 87 | 84 | 1.0 | 9.0 | 0.00 | 0.00 | 0.00 | 30 | 1011.1 |
| 20260503214543 | 87 | 0 | 3.0 | 7.0 | 0.00 | 0.00 | 0.00 | 26 | 1011.2 |
| 20260503213045 | 87 | 330 | 1.0 | 6.0 | 0.00 | 0.00 | 0.00 | 32 | 1011.3 |
| 20260503211605 | 86 | 108 | 3.0 | 8.0 | 0.00 | 0.00 | 0.00 | 31 | 1011.4 |
| 20260503210046 | 85 | 94 | 1.0 | 10.0 | 0.00 | 0.00 | 0.00 | 34 | 1011.6 |
| 20260503204548 | 85 | 75 | 5.0 | 10.0 | 0.00 | 0.00 | 0.00 | 29 | 1011.8 |
| 20260503203049 | 86 | 103 | 2.0 | 8.0 | 0.00 | 0.00 | 0.00 | 32 | 1012.0 |
| 20260503201543 | 85 | 103 | 3.0 | 7.0 | 0.00 | 0.00 | 0.00 | 28 | 1012.1 |
| 20260503200054 | 85 | 98 | 3.0 | 9.0 | 0.00 | 0.00 | 0.00 | 33 | 1012.3 |
| 20260503194547 | 85 | 154 | 2.0 | 8.0 | 0.00 | 0.00 | 0.00 | 33 | 1012.5 |
| 20260503193055 | 84 | 134 | 2.0 | 8.0 | 0.00 | 0.00 | 0.00 | 36 | 1012.5 |
| 20260503191545 | 84 | 0 | 2.0 | 9.0 | 0.00 | 0.00 | 0.00 | 31 | 1012.4 |
| 20260503190050 | 83 | 0 | 1.0 | 6.0 | 0.00 | 0.00 | 0.00 | 34 | 1012.8 |
| 20260503184558 | 83 | 126 | 2.0 | 4.0 | 0.00 | 0.00 | 0.00 | 35 | 1012.9 |
| 20260503183043 | 82 | 167 | 1.0 | 5.0 | 0.00 | 0.00 | 0.00 | 34 | 1012.8 |
| 20260503181607 | 82 | 145 | 2.0 | 6.0 | 0.00 | 0.00 | 0.00 | 35 | 1013.0 |
| 20260503180106 | 81 | 62 | 2.0 | 4.0 | 0.00 | 0.00 | 0.00 | 38 | 1013.1 |
| 20260503174549 | 80 | 52 | 2.0 | 5.0 | 0.00 | 0.00 | 0.00 | 38 | 1013.1 |
| 20260503173058 | 79 | 309 | 2.0 | 5.0 | 0.00 | 0.00 | 0.00 | 45 | 1012.9 |
| 20260503171545 | 77 | 5 | 2.0 | 8.0 | 0.00 | 0.00 | 0.00 | 46 | 1013.1 |
| 20260503081544 | 54 | 0 | 0.0 | 3.0 | 0.00 | 0.00 | 0.00 | 90 | 1013.5 |
| 20260503071557 | 55 | 210 | 1.0 | 3.0 | 0.00 | 0.00 | 0.00 | 91 | 1013.6 |